Powrót do katalogu

TITAN 34B DEB

LostHEO
NORAD 23806·DEBRIS·🇺🇸 United States

Wystrzelony Apr 24, 1981 z Vandenberg Space Force Base

Loading…

Następne Przeloty (najbliższe 24 godziny)

TLE

NieaktualneSource: Space-Track

Epoka: Aug 16, 2022, 21:01 UTC

1 23806U 81038D   22228.87630174  .00015694 -24120-6  54593-3 0  9991
2 23806  63.0669  69.7484 6654427 272.5825  18.8234  3.15706693 37246

Śledź TITAN 34B DEB w czasie rzeczywistym z AllMySat

Download on the App Store